Date,TemperatureHighF,TemperatureAvgF,TemperatureLowF,DewpointHighF,DewpointAvgF,DewpointLowF,HumidityHigh,HumidityAvg,HumidityLow,PressureMaxIn,PressureMinIn,WindSpeedMaxMPH,WindSpeedAvgMPH,GustSpeedMaxMPH,PrecipitationSumIn
2012-6-18,80.1,72.0,62.2,56.8,54.7,50.9,76,56,40,29.93,29.87,5,2,9,0.00
2012-6-19,73.9,67.6,54.5,63.3,59.6,53.1,96,76,65,29.94,29.84,4,2,11,0.00
2012-6-20,98.2,87.1,63.7,74.9,71.8,61.3,95,63,44,29.80,29.66,3,2,10,0.00
2012-6-21,98.6,88.8,71.6,74.5,70.3,67.2,87,57,38,29.66,29.53,3,2,11,0.00
2012-6-22,96.8,83.7,68.9,74.2,69.5,64.7,95,66,41,29.57,29.48,4,2,11,0.13
2012-6-23,90.7,73.9,59.4,69.7,65.5,55.8,100,78,41,29.71,29.55,4,1,6,0.17
2012-6-24,87.4,76.6,57.0,65.2,57.3,47.7,99,55,30,29.74,29.66,4,2,10,0.01
2012-6-25,74.1,67.5,61.2,65.7,62.7,59.3,96,85,71,29.63,29.41,4,2,12,0.58
2012-6-26,74.1,66.3,56.5,60.0,56.7,54.4,97,72,55,29.43,29.34,4,2,13,0.02
2012-6-27,80.8,69.9,55.9,61.4,56.7,52.7,95,65,43,29.51,29.35,4,2,14,0.00
2012-6-28,80.1,77.1,54.7,59.7,57.3,53.6,97,52,44,29.53,29.50,4,2,8,0.00
2012-6-29,93.4,84.1,67.6,73.8,63.9,56.2,92,51,43,29.52,29.33,4,2,11,0.00
2012-6-30,83.3,77.3,59.9,59.3,57.5,54.8,85,52,42,29.49,29.43,4,2,9,0.00
2012-7-1,91.0,75.0,63.1,71.3,68.8,61.1,95,82,43,29.59,29.52,5,1,8,0.07
2012-7-2,86.2,76.6,62.1,72.6,65.1,60.6,97,69,46,29.66,29.59,4,1,12,0.28
2012-7-3,89.8,78.5,59.2,66.6,59.3,52.7,100,56,30,29.70,29.64,3,2,10,0.00
2012-7-4,90.9,81.4,66.7,72.9,69.8,62.9,95,70,48,29.58,29.47,4,2,10,0.08
2012-7-5,87.6,80.0,67.5,69.4,64.9,62.1,94,61,46,29.62,29.45,3,2,11,0.00
2012-7-6,92.1,80.9,59.9,69.7,65.5,58.8,96,62,42,29.68,29.62,4,1,8,0.00
2012-7-7,88.0,79.9,68.2,73.6,69.4,64.2,93,71,48,29.61,29.51,3,1,8,0.00
2012-7-8,92.7,82.4,62.1,67.6,63.2,58.4,96,55,34,29.66,29.55,3,2,11,0.00
2012-7-9,87.4,78.6,62.2,61.6,55.4,49.3,75,47,31,29.74,29.66,3,2,13,0.00
2012-7-10,88.5,78.1,54.7,61.3,53.0,46.3,93,45,25,29.86,29.75,4,2,10,0.00
2012-7-11,93.2,81.7,59.0,64.1,60.1,55.3,93,50,33,29.96,29.86,2,1,6,0.00
2012-7-12,93.4,81.4,59.4,67.4,62.5,58.2,96,55,34,29.97,29.88,5,2,13,0.00
2012-7-13,90.1,83.0,61.7,70.0,66.3,57.1,86,57,50,29.96,29.91,5,2,12,0.00
2012-7-14,93.2,83.2,68.5,68.6,65.5,63.0,88,57,40,29.93,29.85,5,2,11,0.00
2012-7-15,89.1,82.8,64.9,72.0,68.9,62.9,94,64,44,29.86,29.70,4,2,10,0.00
2012-7-16,95.5,84.5,69.3,73.8,70.1,66.8,95,63,43,29.63,29.52,3,2,11,0.00
2012-7-17,95.2,88.1,67.8,72.5,68.5,64.8,94,54,39,29.57,29.48,6,3,16,0.00
2012-7-18,99.5,82.3,73.4,75.8,72.5,67.5,95,75,43,29.67,29.49,5,1,12,0.44
2012-7-19,87.6,78.6,63.7,66.6,62.3,58.8,94,59,40,29.77,29.69,3,1,8,0.00
2012-7-20,75.4,69.5,61.9,62.2,59.8,57.7,89,72,58,29.85,29.79,2,1,8,0.00
2012-7-21,87.8,75.2,52.2,61.6,56.1,51.2,100,54,34,29.89,29.82,3,1,8,0.00
2012-7-22,88.9,80.1,55.8,62.9,60.0,54.6,96,52,36,29.91,29.73,7,3,11,0.00
2012-7-23,88.2,80.4,63.9,69.9,66.9,60.0,92,65,53,29.90,29.62,5,3,13,0.00
2012-7-24,92.1,80.6,69.8,72.0,70.2,66.3,93,72,48,29.52,29.32,4,2,13,0.30
2012-7-25,88.7,76.0,60.8,59.9,56.0,53.6,82,52,32,29.96,29.92,4,2,14,0.00
2012-7-26,85.6,77.8,63.7,71.8,67.5,56.7,87,71,58,29.91,29.73,5,2,13,0.00
2012-7-27,86.0,75.2,66.9,72.8,68.7,65.5,95,81,64,30.05,29.74,3,1,8,0.00
2012-7-28,86.7,73.7,63.0,69.0,66.0,61.5,96,79,49,30.11,30.04,5,1,14,0.87
2012-7-29,73.2,68.2,63.0,66.4,64.2,60.6,96,87,72,30.19,30.07,2,1,8,0.89
2012-7-30,86.0,75.5,56.1,66.3,62.8,55.6,100,67,48,30.25,30.20,4,2,10,0.01
2012-7-31,79.9,73.5,59.0,65.9,63.9,57.6,95,73,56,30.24,30.03,3,1,9,0.00
2012-8-1,85.3,76.7,63.5,73.8,67.9,61.7,96,75,57,30.05,29.98,5,2,14,0.04
2012-8-2,93.7,83.2,67.5,71.9,69.0,64.9,95,64,43,30.03,29.95,4,2,10,0.00
2012-8-3,75.9,72.8,70.5,71.5,69.6,68.1,94,90,84,30.10,30.03,1,0,3,0.00
2012-8-4,93.4,80.5,69.8,74.7,70.1,67.0,94,73,48,30.32,30.24,2,1,5,0.00
2012-8-5,90.1,76.2,71.8,74.3,72.0,69.3,96,88,53,30.34,30.06,6,2,13,0.65
2012-8-6,85.8,78.3,64.4,70.5,61.8,56.6,95,59,41,30.12,30.05,4,2,12,0.04
2012-8-7,88.5,78.4,60.6,65.3,62.6,59.1,95,60,42,30.14,30.08,5,2,13,0.04
2012-8-8,92.5,80.5,60.6,70.4,64.8,55.3,96,62,33,30.12,30.07,3,1,9,0.00
2012-8-9,93.9,82.9,68.4,72.2,69.1,64.7,94,65,42,30.09,30.02,4,2,11,0.00
2012-8-10,87.3,77.5,71.1,72.4,70.9,68.8,94,81,59,30.06,29.91,6,2,16,1.87
2012-8-11,86.2,79.8,69.8,75.2,72.3,68.6,96,78,65,30.04,29.96,4,2,12,0.00
2012-8-12,88.3,78.6,71.1,76.9,72.0,68.9,96,81,62,30.05,29.98,4,1,9,0.25
2012-8-13,89.1,79.0,63.3,68.5,65.3,62.2,97,66,44,30.08,30.03,3,1,9,0.25
2012-8-14,83.7,76.6,61.0,69.6,65.4,59.8,96,70,47,30.09,30.04,3,1,8,0.25
2012-8-15,86.4,75.6,64.9,71.0,67.2,63.4,96,77,53,30.06,29.98,4,1,11,0.37
2012-8-16,88.2,76.0,62.6,69.7,64.9,60.5,96,72,43,30.01,26.88,3,1,10,1.18
2012-8-17,88.2,79.1,59.7,69.1,65.6,58.6,96,65,49,29.98,29.91,5,2,17,0.00
2012-8-18,76.1,69.0,61.5,66.7,63.1,59.8,95,82,67,30.03,29.97,3,1,7,0.21
2012-8-19,80.1,70.1,53.2,64.4,60.6,52.4,97,73,49,30.08,30.03,2,1,6,0.21
2012-8-20,84.9,74.8,55.0,64.6,60.5,54.2,97,64,42,30.05,29.97,2,1,6,0.00
2012-8-21,68.4,65.3,60.6,63.3,62.1,58.9,94,89,83,30.09,30.03,1,0,4,0.00
2012-8-22,85.3,68.5,55.4,64.3,61.6,54.0,96,80,39,30.26,30.21,2,0,4,0.00
2012-8-23,88.7,80.2,59.7,67.9,64.2,58.3,95,60,42,30.26,30.21,4,2,8,0.00
2012-8-24,89.6,79.0,60.6,71.6,66.3,59.2,95,68,44,30.34,30.24,2,1,6,0.00
2012-8-25,89.2,76.0,63.3,68.7,64.1,57.9,96,69,44,30.46,30.34,3,1,8,0.00
2012-8-26,86.9,72.0,56.8,63.9,61.9,55.4,95,73,44,30.46,30.36,2,1,6,0.00
2012-8-27,86.4,78.3,55.0,69.2,66.0,53.9,96,67,48,30.32,30.10,4,3,13,0.00
2012-8-28,89.6,76.7,67.1,71.2,67.6,64.0,95,76,49,30.06,29.85,3,1,11,0.60
2012-8-29,83.1,69.3,53.2,60.3,52.3,45.7,96,59,33,30.10,30.00,3,2,9,0.01
2012-8-30,82.6,72.2,49.6,61.3,55.7,48.7,97,59,32,30.17,30.09,5,2,14,0.01
2012-8-31,89.6,78.4,56.7,64.8,59.4,54.2,92,55,36,30.10,29.96,5,2,11,0.00
2012-9-1,86.9,76.1,64.0,67.0,61.5,56.0,88,62,45,30.25,29.99,2,1,10,0.00
2012-9-2,84.4,73.9,57.9,66.7,60.2,55.3,94,64,43,30.26,30.16,3,1,8,0.00
2012-9-3,84.0,73.2,58.1,62.4,59.2,54.5,96,64,40,30.35,30.26,3,1,8,0.00
2012-9-4,74.3,70.8,61.3,70.9,68.2,56.5,94,92,84,30.28,30.04,2,0,5,0.44
2012-9-5,86.9,75.4,66.0,74.5,70.0,64.8,96,84,59,29.96,29.86,4,1,13,0.79
2012-9-6,83.7,73.8,62.6,68.0,65.7,61.2,97,77,57,30.04,29.96,3,1,8,0.00
2012-9-7,90.5,79.3,63.9,71.8,68.8,62.4,96,73,49,30.06,29.99,3,1,8,0.00
2012-9-8,82.6,74.5,66.4,71.3,67.8,62.7,94,80,59,30.03,29.76,8,3,17,0.31
2012-9-9,80.8,68.3,55.6,62.3,58.2,53.3,95,73,41,29.97,29.86,2,0,8,0.02
2012-9-10,72.0,62.2,47.8,54.7,49.1,44.5,100,64,42,30.17,29.97,3,2,14,0.00
2012-9-11,79.0,65.8,44.8,55.3,48.6,42.9,95,58,33,30.38,30.17,3,1,8,0.00
2012-9-12,83.8,68.3,44.8,63.1,54.9,43.8,97,67,33,30.47,30.39,3,1,9,0.00
2012-9-13,85.1,71.5,54.1,63.8,60.2,53.0,96,70,45,30.48,27.40,4,2,11,0.00
2012-9-14,85.5,76.4,57.6,64.6,61.8,56.1,96,63,47,30.40,30.22,6,2,11,0.00
2012-9-15,76.8,66.4,49.6,60.7,52.4,47.1,94,63,39,30.19,30.11,4,2,14,0.02
2012-9-16,76.5,62.8,43.7,53.1,48.4,42.9,100,64,32,30.20,30.11,4,1,11,0.00
2012-9-17,80.6,68.0,40.3,59.5,54.0,40.0,100,65,36,30.21,30.14,3,1,8,0.00
2012-9-18,74.1,67.8,53.1,67.5,62.9,52.0,97,85,73,30.17,29.84,9,4,24,0.05
2012-9-19,77.2,64.8,49.3,66.3,48.9,41.6,95,60,29,30.28,29.82,4,1,11,0.54
2012-9-20,75.0,62.0,41.5,52.0,47.6,41.3,100,63,40,30.37,30.26,3,1,11,0.00
2012-9-21,75.0,60.3,44.1,56.1,51.0,43.3,97,74,47,30.27,30.17,2,1,8,0.00
2012-9-22,80.1,72.3,49.1,62.6,58.8,47.8,96,64,52,30.14,29.95,4,2,12,0.01
2012-9-23,74.3,63.0,43.3,58.8,46.7,40.8,95,59,34,30.20,29.99,4,2,14,0.00
2012-9-24,70.3,57.1,38.3,49.1,43.7,37.9,100,65,36,30.25,30.17,4,1,12,0.00
2012-9-25,76.8,63.8,38.7,52.3,48.5,38.4,100,61,38,30.29,30.22,7,3,18,0.00
2012-9-26,73.4,67.6,54.7,62.4,60.5,51.7,93,79,66,30.23,30.12,6,2,14,0.00
2012-9-27,77.4,70.7,58.3,61.9,54.2,49.4,96,58,41,30.28,30.12,3,1,9,0.00
2012-9-28,55.9,55.3,54.5,54.2,53.7,53.1,95,94,93,29.93,29.87,2,0,5,0.00
2012-9-29,57.2,54.9,52.7,54.1,52.2,50.7,96,91,85,29.83,29.77,3,1,8,0.00
2012-9-30,68.0,53.3,51.6,55.4,50.5,49.4,94,91,64,29.78,29.60,2,0,4,0.00
2012-10-1,71.8,60.2,48.0,54.4,51.1,46.6,95,74,52,29.83,29.62,7,3,24,0.02
2012-10-2,68.9,60.3,50.7,59.6,57.2,49.3,96,90,65,29.94,29.84,2,0,7,0.00
2012-10-3,65.1,62.7,59.7,62.2,60.5,58.0,95,93,89,30.04,29.92,0,0,4,0.00
2012-10-4,64.0,62.0,59.7,60.1,59.3,58.0,94,91,86,30.06,29.93,1,0,4,0.00
2012-10-5,82.8,68.0,52.7,64.4,58.1,51.6,97,74,41,29.93,29.83,3,1,9,0.00
2012-10-6,78.4,66.0,55.4,63.0,59.8,54.6,97,82,57,29.77,29.67,7,2,17,0.00
2012-10-7,58.8,48.9,38.7,46.8,42.6,37.6,96,80,55,29.93,29.85,2,1,4,0.00
2012-10-8,62.8,51.7,37.4,47.6,44.8,36.4,97,79,51,30.19,29.94,2,0,4,0.00
2012-10-9,59.0,53.3,45.1,50.4,47.6,43.2,93,81,67,30.17,30.03,3,1,10,0.00
2012-10-10,63.5,56.6,46.9,59.9,53.5,44.2,92,89,86,30.00,29.62,3,0,8,0.00
2012-10-11,48.2,44.6,43.5,41.7,36.2,36.1,78,72,72,29.91,29.74,8,2,12,0.00
2012-10-12,57.0,46.6,38.7,35.7,29.6,25.4,69,52,36,30.15,29.91,4,2,15,0.00
2012-10-13,59.5,46.8,26.1,34.4,27.4,18.6,87,51,23,30.28,30.15,4,1,14,0.00
2012-10-14,70.9,59.8,42.6,54.5,51.2,35.9,89,74,54,30.11,29.80,6,2,17,0.00
2012-10-15,76.5,69.9,59.9,60.8,59.1,54.4,82,69,58,29.71,29.45,8,4,19,0.00
2012-10-16,60.4,51.2,38.5,55.0,36.8,34.8,90,59,42,29.66,29.41,6,3,16,0.00
2012-10-17,69.6,51.9,30.2,44.9,36.2,27.1,92,61,25,29.82,29.69,10,1,72,0.00
2012-10-18,73.2,56.8,34.5,50.1,44.8,32.4,96,68,36,29.93,29.83,3,1,10,0.00
2012-10-19,69.1,62.5,48.2,64.4,58.9,45.7,95,88,68,29.87,29.54,4,1,16,0.00
2012-10-20,77.5,64.8,55.0,65.3,58.2,46.3,96,81,41,29.56,29.43,4,1,11,0.00
2012-10-21,66.6,54.2,39.9,43.2,40.6,38.6,96,63,40,29.71,29.59,4,2,13,0.00
2012-10-22,70.7,59.3,44.6,46.9,43.0,40.3,91,57,35,29.81,29.70,5,2,14,0.00
2012-10-23,68.7,59.7,39.9,49.0,45.8,38.3,96,62,43,29.93,29.83,3,1,8,0.00
2012-10-24,54.3,51.6,45.7,48.5,40.7,35.9,87,66,57,30.04,29.93,2,0,5,0.00
2012-10-25,66.4,56.5,39.6,46.4,40.2,27.9,95,58,26,30.11,30.04,2,1,6,0.00
2012-10-26,72.1,59.0,41.9,55.2,50.7,40.1,94,76,53,30.06,29.93,4,1,11,0.00
2012-10-27,66.6,58.1,44.6,55.5,51.4,43.0,96,79,66,29.94,29.80,2,0,6,0.00
2012-10-28,55.4,52.6,49.8,50.8,48.9,47.1,91,87,82,29.78,29.56,4,2,16,0.01
2012-10-29,63.3,58.9,49.8,59.7,55.7,47.3,92,89,87,29.56,28.96,9,6,34,0.00
2012-10-30,69.8,61.8,54.7,59.3,54.9,52.4,93,79,58,29.37,29.16,7,3,16,0.00
2012-10-31,57.7,51.6,45.5,50.2,44.7,40.0,93,78,64,29.39,29.31,4,1,11,0.00
2012-11-1,58.5,48.6,38.1,42.3,40.1,36.3,93,73,55,29.38,29.32,2,1,6,0.00
2012-11-2,53.1,48.7,42.1,41.5,36.9,33.9,91,64,54,29.42,29.34,3,2,11,0.00
2012-11-3,60.6,49.2,38.1,38.2,34.0,30.1,73,56,40,29.62,29.44,5,3,15,0.00
2012-11-4,59.5,47.3,35.1,37.7,33.4,28.4,83,60,41,29.76,29.63,5,2,12,0.00
2012-11-5,49.3,37.4,24.6,31.1,21.4,15.7,71,53,40,29.95,29.75,6,2,14,0.00
2012-11-6,51.3,35.7,20.1,26.8,16.1,9.4,82,48,23,30.05,29.95,3,1,8,0.00
2012-11-7,35.4,31.1,29.3,27.0,25.6,22.3,89,81,61,29.88,29.59,7,4,19,0.00
2012-11-8,38.3,36.6,31.5,34.2,32.4,28.6,89,85,79,29.57,29.44,9,4,21,0.01
2012-11-9,58.3,45.4,30.4,30.7,23.4,15.5,78,46,22,29.92,29.61,6,3,15,0.01
2012-11-10,62.6,47.4,29.3,38.9,32.3,24.5,89,59,32,30.25,29.93,4,1,10,0.00
2012-11-11,68.7,57.2,34.3,47.4,44.3,29.7,84,63,41,30.30,30.22,5,2,17,0.00
2012-11-12,73.0,64.1,47.5,57.2,52.9,43.8,92,68,52,30.26,30.02,7,4,19,0.00
2012-11-13,65.1,42.8,34.5,58.4,38.7,29.9,89,85,78,30.22,29.93,4,1,9,0.01
2012-11-14,52.9,41.1,29.1,30.2,25.4,22.6,79,56,33,30.35,30.26,5,2,14,0.00
2012-11-15,50.5,37.2,28.6,29.6,26.5,22.6,86,66,43,30.26,30.11,6,1,10,0.00
2012-11-16,51.8,36.5,27.5,30.5,25.8,21.3,87,67,37,30.21,30.08,2,0,4,0.00
2012-11-17,55.6,38.5,24.6,30.6,25.9,20.1,86,63,35,30.47,30.24,4,1,8,0.00
2012-11-18,55.9,40.5,23.4,35.7,28.6,19.3,85,64,42,30.51,30.44,4,1,9,0.00
2012-11-19,54.9,38.4,24.8,36.6,29.5,20.4,86,72,49,30.38,30.07,3,1,7,0.00
2012-11-20,57.4,42.3,23.9,37.7,31.7,19.5,86,68,41,30.07,29.94,3,1,8,0.00
2012-11-21,56.7,45.5,29.5,38.4,34.9,25.8,87,68,48,30.06,29.98,3,1,11,0.00
2012-11-22,62.8,46.3,31.1,43.3,36.8,27.4,88,71,45,30.07,29.93,3,1,6,0.00
2012-11-23,61.9,49.5,28.2,43.4,39.1,13.6,88,69,45,29.90,29.50,6,2,14,0.00
2012-11-24,51.4,40.5,32.5,43.4,17.6,11.8,84,40,27,29.48,29.36,7,4,25,0.00
2012-11-25,39.7,34.1,26.4,21.7,17.9,13.2,69,52,41,29.68,29.48,7,3,21,0.00
2012-11-26,51.1,39.2,25.5,27.6,21.3,15.7,78,51,26,30.03,29.68,6,2,21,0.00
2012-11-27,35.6,33.5,25.3,30.5,28.7,18.5,87,82,75,30.13,30.02,2,0,3,0.01
2012-11-28,44.4,33.5,27.0,32.0,26.7,21.3,86,76,56,30.00,29.90,2,0,7,0.00
2012-11-29,48.6,39.4,25.5,28.9,22.9,19.3,78,52,38,30.08,29.98,5,2,16,0.00
2012-11-30,41.7,33.3,29.3,24.0,5.1,-1.7,76,32,22,30.34,30.03,4,1,11,0.00
2012-12-1,30.4,28.6,26.6,24.6,22.6,5.9,84,78,35,30.42,30.33,2,1,5,0.00
2012-12-2,50.4,47.3,34.3,43.8,40.8,29.7,83,78,74,29.92,29.64,5,3,13,0.00
2012-12-3,64.6,50.6,34.3,46.5,39.7,30.3,90,68,45,29.86,29.65,4,2,14,0.00
2012-12-4,58.1,47.1,29.1,52.6,43.2,25.7,90,86,82,29.87,29.63,6,2,14,0.00
2012-12-5,59.0,47.8,35.2,51.4,30.1,14.4,83,51,39,29.69,29.43,7,4,28,0.00
2012-12-6,48.9,33.6,20.8,18.5,14.1,10.2,73,47,24,29.90,29.73,4,1,14,0.00
2012-12-7,45.3,38.8,20.5,38.0,31.3,13.1,87,75,62,29.87,29.64,3,1,10,0.00
2012-12-8,45.5,43.3,41.5,42.5,40.2,38.4,91,89,87,29.60,29.43,2,0,7,0.00
2012-12-9,46.6,40.9,32.7,43.4,35.0,29.6,92,80,64,29.86,29.59,3,0,8,0.00
2012-12-10,59.5,53.2,40.6,56.6,50.1,37.7,91,89,87,29.62,29.09,4,1,8,0.00
2012-12-11,55.9,39.0,32.9,51.5,26.2,19.2,85,61,37,29.70,29.14,3,1,14,0.00
2012-12-12,43.9,34.8,26.6,22.2,20.3,17.1,75,57,38,30.00,29.75,4,1,7,0.00
2012-12-13,52.0,36.0,23.0,29.7,20.7,16.4,84,57,28,30.06,29.89,3,1,7,0.00
2012-12-14,54.5,38.0,20.8,28.1,21.7,15.5,80,56,23,29.87,29.65,4,1,9,0.00
2012-12-15,51.8,36.9,25.5,28.7,19.6,16.0,80,52,30,29.91,29.77,3,1,8,0.00
2012-12-16,34.2,27.5,0.0,29.9,24.1,19.8,86,64,60,29.88,29.63,2,1,7,0.00
2012-12-17,33.6,33.1,31.1,29.9,29.2,27.1,86,85,85,29.61,29.41,1,0,5,0.00
2012-12-18,46.2,40.4,34.2,43.3,37.3,30.4,92,89,85,29.35,29.01,2,1,8,0.00
2012-12-19,50.7,42.4,34.5,37.6,29.7,26.2,84,61,49,29.58,29.05,8,4,23,0.00
2012-12-20,50.0,46.1,26.8,33.2,28.4,22.0,86,50,46,29.79,29.65,3,2,7,0.00
2012-12-22,43.2,33.8,29.3,28.4,17.3,12.6,71,51,34,30.25,29.92,7,4,24,0.00
2012-12-23,43.0,34.9,28.0,37.8,19.1,13.0,83,53,35,30.48,30.27,5,2,17,0.00
2012-12-24,47.1,38.9,25.3,21.8,16.3,10.2,70,41,24,30.67,30.50,4,2,17,0.00
2012-12-25,35.4,29.1,25.0,25.9,21.1,16.8,79,72,66,30.82,30.61,4,1,8,0.00
2012-12-26,38.1,31.8,16.9,29.1,19.9,9.5,84,62,41,30.92,30.59,3,1,8,0.00
2012-12-27,41.0,34.9,31.5,38.1,31.0,27.8,90,85,83,30.41,29.89,7,2,21,0.00
2012-12-28,41.9,33.2,26.4,23.2,20.1,15.9,76,59,45,30.63,30.27,6,2,17,0.00
2012-12-29,36.0,30.2,23.2,26.0,23.1,17.9,86,75,58,30.62,30.03,3,1,9,0.00
2012-12-30,35.6,28.2,22.3,25.1,10.8,4.4,86,48,38,30.59,30.07,7,4,23,0.00
2012-12-31,38.1,30.8,11.8,21.9,17.9,2.0,71,58,48,30.66,30.41,5,2,15,0.00
2013-1-1,41.7,31.8,21.7,24.1,12.2,3.7,58,44,34,30.53,30.34,9,3,24,0.00